Location: Highridge
(54.0333°N, 114.1333°W)
Time: 14:40:49
(UTC+00:00)

Oscar 19 - Pass Details

Date: 05 December 2023
Orbit: 771 x 789 km, 98.9° (Epoch: 01 March)

Event Time Altitude Azimuth Distance (km) Brightness Sun altitude
Rises 23:55:09 0° 187° (S) 3,235 14.4 -5.5°
Reaches altitude 10° 23:57:37 10° 195° (SSW) 2,313 13.8 -5.8°
Maximum altitude 00:02:20 37° 263° (W) 1,184 12.3 -6.4°
Drops below altitude 10° 00:07:05 10° 331° (NNW) 2,333 13.1 -7.0°
Sets 00:09:35 0° 340° (NNW) 3,267 13.8 -7.3°
